Regional Weather Roundup
Issued by NWS

Home | Current Version | Previous Version | Text Only | Print | Product List | Glossary On
Versions: 1 2 3 4 5 6 7 8 9 10 11 12 13 14 15 16 17 18 19 20 21 22 23 24 25 26 27 28 29 30 31 32 33 34 35 36 37 38 39 40 41 42 43 44 45 46 47 48 49 50
558
ASUS45 KBOU 081707
RWRCO

WEATHER ROUNDUP FOR COLORADO
NATIONAL WEATHER SERVICE DENVER/BOULDER CO
1000 AM MST THU DEC 08 2016

NOTE: "FAIR" INDICATES FEW OR NO CLOUDS BELOW 12000 FEET WITH NO
SIGNIFICANT WEATHER AND/OR OBSTRUCTIONS TO VISIBILITY.

COZ001>005-013-030-031-081800-
...NORTHWEST COLORADO...

CITY           SKY/WX    TMP DP  RH WIND       PRES   REMARKS
CRAIG          PTSUNNY   10   0  63 E7        30.31F WCI  -1
HAYDEN         FAIR       3  -6  66 E13       30.29S WCI -14
MEEKER         CLOUDY     8   2  76 CALM      30.30S
MOUNT WERNER   NOT AVBL
STEAMBOAT SPGS PTSUNNY   -1  -6  78 CALM      30.29F
WALDEN           N/A     -9 -17  70 CALM      30.23S
$$

COZ006>008-011-081800-
...WEST CENTRAL VALLEYS...

CITY           SKY/WX    TMP DP  RH WIND       PRES   REMARKS
GRAND JUNCTION CLOUDY    24   6  46 SE8       30.38R WCI  15
MONTROSE       CLOUDY    21   8  57 CALM      30.38R
EAGLE          NOT AVBL
RIFLE          CLOUDY    15   5  64 CALM      30.37F
DELTA          NOT AVBL
NUCLA          CLOUDY    19   1  45 CALM      30.37S
$$

COZ017>023-064>068-081800-
...SOUTHWEST COLORADO...

CITY           SKY/WX    TMP DP  RH WIND       PRES   REMARKS
DURANGO        PTSUNNY   22   2  42 CALM      30.33R
CORTEZ         CLOUDY    25   9  50 CALM      30.33R
PAGOSA SPRINGS PTSUNNY   20  -1  39 CALM      30.32R
TELLURIDE      CLOUDY    20  -6  30 CALM      30.25R
WOLF CREEK PAS FAIR       7 -15  36 SW16G22   30.23R WCI -11
$$

COZ009-010-012-014-032>034-037-058>063-081800-
...CENTRAL COLORADO...

CITY           SKY/WX    TMP DP  RH WIND       PRES   REMARKS
ASPEN          CLOUDY     8   0  69 CALM      30.25S
BUENA VISTA    PTSUNNY   12  -3  51 CALM      30.24F
COPPER MTN     CLOUDY    12 -15  29 MISG      30.08R HAZE
BERTHOUD PASS  FAIR       0 -13  55 W21       30.01S WCI -23
COTTONWOOD PAS PTSUNNY   18  -9  29 W6G23     30.15R WCI   9
GUNNISON       FLURRIES   7  -4  60 CALM      30.36R
KREMMLING      CLOUDY   N/A N/A N/A CALM      30.35S
LEADVILLE      CLOUDY    14  -6  40 N8        30.13R WCI   3
MONARCH PASS   CLOUDY     5 -15  39 W35G45    30.21R WCI -20
SALIDA         FAIR      11   1  64 NW5       30.36R WCI   3
SUNLIGHT       CLOUDY     5   1  85 SW15G21   30.18S FOG     WCI -13
WILKERSON PASS FAIR       5  -8  56 SW15G22   30.10R WCI -13
$$

COZ069>075-081800-
...SAN LUIS VALLEY/SANGRE DE CRISTO MOUNTAINS...

CITY           SKY/WX    TMP DP  RH WIND       PRES   REMARKS
ALAMOSA        PTSUNNY   13   1  59 N5        30.31R WCI   5
LA VETA PASS   LGT SNOW  10   7  85 NE20G28   30.15R WCI  -8
SAGUACHE       FAIR      19   0  42 NW15      30.29S WCI   5
$$

COZ035-036-038>040-081800-
...NORTHERN COLORADO FRONT RANGE...

CITY           SKY/WX    TMP DP  RH WIND       PRES   REMARKS
DENVER INTL AP PTSUNNY    7   4  87 S5        30.40F WCI  -2
DMNS CITY PARK   N/A     13   3  64 N5        30.41S WCI   5
AURORA         PTSUNNY    7   5  89 CALM      30.38F
FRONT RANGE AP NOT AVBL
ERIE MUNI ARPT FAIR       6   4  89 CALM      30.43S
BOULDER MUN AP FAIR       9   3  78 N3        30.41F
CENTENNIAL     PTSUNNY    8   5  87 CALM      30.36S
BROOMFIELD     PTSUNNY    9   3  78 CALM      30.39S
FORT COLLINS   FAIR       3   1  92 CALM      30.45S
LONGMONT       FAIR       9   1  69 CALM      30.46S
$$

COZ041-046-047-076>085-087-088-081800-
...PIKES PEAK/PALMER DIVIDE AND SOUTHERN FOOTHILLS...

CITY           SKY/WX    TMP DP  RH WIND       PRES   REMARKS
COLO. SPRINGS  SNOW       9   5  84 SE13      30.39R VSB 1/2 WCI  -7
A. F. ACADEMY  CLOUDY     9   2  71 S10       30.34R WCI  -5
SCHRIEVER AFB  NOT AVBL
ELLICOTT       LGT SNOW N/A N/A N/A S12         N/A
FALCON         LGT SNOW   8   3  81 S12       30.34S WCI  -7
FORT CARSON    LGT SNOW  10   7  85 S12       30.39R WCI  -4
LIMON          PTSUNNY   10   6  84 SE9       30.44S WCI  -3
MONUMENT HILL  FAIR      10   5  79 S12G17    30.29S WCI  -4
TRINIDAD       FAIR      16   7  67 VRB3      30.41R
$$

COZ042>045-048>051-090-091-081800-
...NORTHEAST COLORADO...

CITY           SKY/WX    TMP DP  RH WIND       PRES   REMARKS
GREELEY ARPT   FAIR      -1  -7  75 CALM      30.50S
AKRON          FAIR       5   0  79 W3        30.49R
BURLINGTON     FAIR      11  -3  53 N7        30.55R WCI   0
WRAY           NOT AVBL
STERLING       FAIR       0  -6  78 S8        30.56R WCI -15
HOLYOKE        FAIR      14   1  57 W6        30.59R WCI   5
FORT MORGAN    FAIR       0  -6  76 SW3       30.51F
$$

COZ086-089-092>099-081800-
...SOUTHEAST COLORADO...

CITY           SKY/WX    TMP DP  RH WIND       PRES   REMARKS
PUEBLO         CLOUDY    17   9  70 SE10      30.49R WCI   5
LA JUNTA       FAIR      17   6  62 E9        30.54F WCI   6
LAMAR          FAIR      15  -1  49 CALM      30.60R
SPRINGFIELD      N/A     17   1  49 SE6       30.54R WCI   9
$$




USA.gov is the U.S. government's official web portal to all federal, state and local government web resources and services.